Time,TemperatureF,DewpointF,PressureIn,WindDirection,WindDirectionDegrees,WindSpeedMPH,WindSpeedGustMPH,Humidity,HourlyPrecipIn,Conditions,Clouds,dailyrainin,SoftwareType,DateUTC
2013-02-10 00:00:00,44.1,40.5,30.10,SSW,207,0.0,0.0,87,0.00,,,0.00,Wunderground v.1.15,2013-02-10 08:00:00,
2013-02-10 00:05:00,44.1,40.5,30.10,SSW,207,0.0,0.0,87,0.00,,,0.00,Wunderground v.1.15,2013-02-10 08:05:00,
2013-02-10 00:10:00,44.1,40.5,30.10,SSW,207,0.0,0.0,87,0.00,,,0.00,Wunderground v.1.15,2013-02-10 08:10:00,
2013-02-10 00:15:00,44.5,40.9,30.10,SSW,203,0.0,-999.0,87,0.00,,,0.00,Wunderground v.1.15,2013-02-10 08:15:00,
2013-02-10 00:20:00,44.5,40.9,30.10,SSW,203,0.0,-999.0,87,0.00,,,0.00,Wunderground v.1.15,2013-02-10 08:20:00,
2013-02-10 00:25:00,44.8,40.9,30.10,SSW,203,0.0,-999.0,86,0.00,,,0.00,Wunderground v.1.15,2013-02-10 08:25:00,
2013-02-10 00:30:00,44.8,40.9,30.10,SSW,203,0.0,-999.0,86,0.00,,,0.00,Wunderground v.1.15,2013-02-10 08:30:00,
2013-02-10 00:35:00,44.9,41.0,30.10,SSW,203,0.0,-999.0,86,0.00,,,0.00,Wunderground v.1.15,2013-02-10 08:35:00,
2013-02-10 00:40:00,44.9,41.0,30.10,SSW,203,0.0,-999.0,86,0.00,,,0.00,Wunderground v.1.15,2013-02-10 08:40:00,
2013-02-10 00:45:00,45.0,41.1,30.09,SSW,203,0.0,-999.0,86,0.00,,,0.00,Wunderground v.1.15,2013-02-10 08:45:00,
2013-02-10 00:50:00,45.0,41.1,30.09,SSW,203,0.0,-999.0,86,0.00,,,0.00,Wunderground v.1.15,2013-02-10 08:50:00,
2013-02-10 00:55:00,44.9,41.0,30.09,N/A,-737280,0.0,-999.0,86,0.00,,,0.00,Wunderground v.1.15,2013-02-10 08:55:00,
2013-02-10 01:00:00,44.9,41.0,30.09,N/A,-737280,0.0,-999.0,86,0.00,,,0.00,Wunderground v.1.15,2013-02-10 09:00:00,
2013-02-10 01:05:00,44.7,40.5,30.09,N/A,-737280,0.0,-999.0,85,0.00,,,0.00,Wunderground v.1.15,2013-02-10 09:05:00,
2013-02-10 01:10:00,44.7,40.5,30.09,N/A,-737280,0.0,-999.0,85,0.00,,,0.00,Wunderground v.1.15,2013-02-10 09:10:00,
2013-02-10 01:15:00,44.4,40.5,30.09,N/A,-737280,0.0,-999.0,86,0.00,,,0.00,Wunderground v.1.15,2013-02-10 09:15:00,
2013-02-10 01:20:00,44.4,40.5,30.09,N/A,-737280,0.0,-999.0,86,0.00,,,0.00,Wunderground v.1.15,2013-02-10 09:20:00,
2013-02-10 01:25:00,44.5,40.6,30.09,N/A,-737280,0.0,-999.0,86,0.00,,,0.00,Wunderground v.1.15,2013-02-10 09:25:00,
2013-02-10 01:30:00,44.5,40.6,30.09,N/A,-737280,0.0,-999.0,86,0.00,,,0.00,Wunderground v.1.15,2013-02-10 09:30:00,
2013-02-10 01:35:00,44.2,40.3,30.09,N/A,-737280,0.0,-999.0,86,0.00,,,0.00,Wunderground v.1.15,2013-02-10 09:35:00,
2013-02-10 01:40:00,44.2,40.3,30.09,N/A,-737280,0.0,-999.0,86,0.00,,,0.00,Wunderground v.1.15,2013-02-10 09:40:00,
2013-02-10 01:45:00,43.8,39.9,30.09,N/A,-737280,0.0,-999.0,86,0.00,,,0.00,Wunderground v.1.15,2013-02-10 09:45:00,
2013-02-10 01:50:00,43.8,39.9,30.09,N/A,-737280,0.0,-999.0,86,0.00,,,0.00,Wunderground v.1.15,2013-02-10 09:50:00,
2013-02-10 01:55:00,43.4,39.5,30.08,N/A,-737280,0.0,-999.0,86,0.00,,,0.00,Wunderground v.1.15,2013-02-10 09:55:00,
2013-02-10 02:00:00,43.4,39.5,30.08,N/A,-737280,0.0,-999.0,86,0.00,,,0.00,Wunderground v.1.15,2013-02-10 10:00:00,
2013-02-10 02:05:00,42.9,39.3,30.08,N/A,-737280,0.0,-999.0,87,0.00,,,0.00,Wunderground v.1.15,2013-02-10 10:05:00,
2013-02-10 02:10:00,42.9,39.3,30.08,N/A,-737280,0.0,-999.0,87,0.00,,,0.00,Wunderground v.1.15,2013-02-10 10:10:00,
2013-02-10 02:15:00,42.4,38.8,30.08,N/A,-737280,0.0,-999.0,87,0.00,,,0.00,Wunderground v.1.15,2013-02-10 10:15:00,
2013-02-10 02:20:00,42.4,38.8,30.08,N/A,-737280,0.0,-999.0,87,0.00,,,0.00,Wunderground v.1.15,2013-02-10 10:20:00,
2013-02-10 02:25:00,41.8,37.9,30.08,N/A,-737280,0.0,-999.0,86,0.00,,,0.00,Wunderground v.1.15,2013-02-10 10:25:00,
2013-02-10 02:30:00,41.8,37.9,30.08,N/A,-737280,0.0,-999.0,86,0.00,,,0.00,Wunderground v.1.15,2013-02-10 10:30:00,
2013-02-10 02:35:00,41.7,38.1,30.08,N/A,-737280,0.0,-999.0,87,0.00,,,0.00,Wunderground v.1.15,2013-02-10 10:35:00,
2013-02-10 02:40:00,41.7,38.1,30.08,N/A,-737280,0.0,-999.0,87,0.00,,,0.00,Wunderground v.1.15,2013-02-10 10:40:00,
2013-02-10 02:45:00,41.6,38.3,30.08,N/A,-737280,0.0,-999.0,88,0.00,,,0.00,Wunderground v.1.15,2013-02-10 10:45:00,
2013-02-10 02:50:00,41.6,38.3,30.08,N/A,-737280,0.0,-999.0,88,0.00,,,0.00,Wunderground v.1.15,2013-02-10 10:50:00,
2013-02-10 02:55:00,41.2,37.9,30.07,N/A,-737280,0.0,-999.0,88,0.00,,,0.00,Wunderground v.1.15,2013-02-10 10:55:00,
2013-02-10 03:00:00,41.2,37.9,30.07,N/A,-737280,0.0,-999.0,88,0.00,,,0.00,Wunderground v.1.15,2013-02-10 11:00:00,
2013-02-10 03:05:00,40.7,37.4,30.07,N/A,-737280,0.0,-999.0,88,0.00,,,0.00,Wunderground v.1.15,2013-02-10 11:05:00,
2013-02-10 03:10:00,40.7,37.4,30.07,N/A,-737280,0.0,-999.0,88,0.00,,,0.00,Wunderground v.1.15,2013-02-10 11:10:00,
2013-02-10 03:15:00,40.9,37.9,30.07,N/A,-737280,0.0,-999.0,89,0.00,,,0.00,Wunderground v.1.15,2013-02-10 11:15:00,
2013-02-10 03:20:00,40.9,37.9,30.07,N/A,-737280,0.0,-999.0,89,0.00,,,0.00,Wunderground v.1.15,2013-02-10 11:20:00,
2013-02-10 03:25:00,40.9,37.9,30.07,N/A,-737280,0.0,-999.0,89,0.00,,,0.00,Wunderground v.1.15,2013-02-10 11:25:00,
2013-02-10 03:30:00,40.9,37.9,30.07,N/A,-737280,0.0,-999.0,89,0.00,,,0.00,Wunderground v.1.15,2013-02-10 11:30:00,
2013-02-10 03:35:00,40.7,37.7,30.06,N/A,-737280,0.0,-999.0,89,0.00,,,0.00,Wunderground v.1.15,2013-02-10 11:35:00,
2013-02-10 03:40:00,40.7,37.7,30.06,N/A,-737280,0.0,-999.0,89,0.00,,,0.00,Wunderground v.1.15,2013-02-10 11:40:00,
2013-02-10 03:45:00,40.5,37.5,30.07,N/A,-737280,0.0,-999.0,89,0.00,,,0.00,Wunderground v.1.15,2013-02-10 11:45:00,
2013-02-10 03:50:00,40.5,37.5,30.07,N/A,-737280,0.0,-999.0,89,0.00,,,0.00,Wunderground v.1.15,2013-02-10 11:50:00,
2013-02-10 03:55:00,40.5,37.5,30.07,N/A,-737280,0.0,-999.0,89,0.00,,,0.00,Wunderground v.1.15,2013-02-10 11:55:00,
2013-02-10 04:00:00,40.5,37.5,30.07,N/A,-737280,0.0,-999.0,89,0.00,,,0.00,Wunderground v.1.15,2013-02-10 12:00:00,
2013-02-10 04:05:00,40.4,37.4,30.07,N/A,-737280,0.0,-999.0,89,0.00,,,0.00,Wunderground v.1.15,2013-02-10 12:05:00,
2013-02-10 04:10:00,40.4,37.4,30.07,N/A,-737280,0.0,-999.0,89,0.00,,,0.00,Wunderground v.1.15,2013-02-10 12:10:00,
2013-02-10 04:15:00,40.2,37.2,30.06,N/A,-737280,0.0,-999.0,89,0.00,,,0.00,Wunderground v.1.15,2013-02-10 12:15:00,
2013-02-10 04:20:00,40.2,37.2,30.06,N/A,-737280,0.0,-999.0,89,0.00,,,0.00,Wunderground v.1.15,2013-02-10 12:20:00,
2013-02-10 04:25:00,40.2,37.2,30.06,N/A,-737280,0.0,-999.0,89,0.00,,,0.00,Wunderground v.1.15,2013-02-10 12:25:00,
2013-02-10 04:30:00,40.2,37.2,30.06,N/A,-737280,0.0,-999.0,89,0.00,,,0.00,Wunderground v.1.15,2013-02-10 12:30:00,
2013-02-10 04:35:00,40.3,37.3,30.07,N/A,-737280,0.0,-999.0,89,0.00,,,0.00,Wunderground v.1.15,2013-02-10 12:35:00,
2013-02-10 04:40:00,40.3,37.3,30.07,N/A,-737280,0.0,-999.0,89,0.00,,,0.00,Wunderground v.1.15,2013-02-10 12:40:00,
2013-02-10 04:45:00,40.5,37.5,30.06,N/A,-737280,0.0,-999.0,89,0.00,,,0.00,Wunderground v.1.15,2013-02-10 12:45:00,
2013-02-10 04:50:00,40.5,37.5,30.06,N/A,-737280,0.0,-999.0,89,0.00,,,0.00,Wunderground v.1.15,2013-02-10 12:50:00,
2013-02-10 04:55:00,40.4,37.4,30.07,N/A,-737280,0.0,-999.0,89,0.00,,,0.00,Wunderground v.1.15,2013-02-10 12:55:00,
2013-02-10 05:00:00,40.4,37.4,30.07,N/A,-737280,0.0,-999.0,89,0.00,,,0.00,Wunderground v.1.15,2013-02-10 13:00:00,
2013-02-10 05:05:00,40.5,37.5,30.06,N/A,-737280,0.0,-999.0,89,0.00,,,0.00,Wunderground v.1.15,2013-02-10 13:05:00,
2013-02-10 05:10:00,40.5,37.5,30.06,N/A,-737280,0.0,-999.0,89,0.00,,,0.00,Wunderground v.1.15,2013-02-10 13:10:00,
2013-02-10 05:15:00,40.2,37.2,30.06,N/A,-737280,0.0,-999.0,89,0.00,,,0.00,Wunderground v.1.15,2013-02-10 13:15:00,
2013-02-10 05:20:00,40.2,37.2,30.06,N/A,-737280,0.0,-999.0,89,0.00,,,0.00,Wunderground v.1.15,2013-02-10 13:20:00,
2013-02-10 05:25:00,39.9,36.9,30.06,N/A,-737280,0.0,-999.0,89,0.00,,,0.00,Wunderground v.1.15,2013-02-10 13:25:00,
2013-02-10 05:30:00,39.9,36.9,30.06,N/A,-737280,0.0,-999.0,89,0.00,,,0.00,Wunderground v.1.15,2013-02-10 13:30:00,
2013-02-10 05:35:00,39.8,36.8,30.06,N/A,-737280,0.0,-999.0,89,0.00,,,0.00,Wunderground v.1.15,2013-02-10 13:35:00,
2013-02-10 05:40:00,39.8,36.8,30.06,N/A,-737280,0.0,-999.0,89,0.00,,,0.00,Wunderground v.1.15,2013-02-10 13:40:00,
2013-02-10 05:45:00,39.6,36.6,30.06,N/A,-737280,0.0,-999.0,89,0.00,,,0.00,Wunderground v.1.15,2013-02-10 13:45:00,
2013-02-10 05:50:00,39.6,36.6,30.06,N/A,-737280,0.0,-999.0,89,0.00,,,0.00,Wunderground v.1.15,2013-02-10 13:50:00,
2013-02-10 05:55:00,39.3,36.3,30.06,N/A,-737280,0.0,-999.0,89,0.00,,,0.00,Wunderground v.1.15,2013-02-10 13:55:00,
2013-02-10 06:00:00,39.3,36.3,30.06,N/A,-737280,0.0,-999.0,89,0.00,,,0.00,Wunderground v.1.15,2013-02-10 14:00:00,
2013-02-10 06:05:00,39.3,36.6,30.06,N/A,-737280,0.0,-999.0,90,0.00,,,0.00,Wunderground v.1.15,2013-02-10 14:05:00,
2013-02-10 06:10:00,39.3,36.6,30.06,N/A,-737280,0.0,-999.0,90,0.00,,,0.00,Wunderground v.1.15,2013-02-10 14:10:00,
2013-02-10 06:15:00,39.3,36.6,30.06,N/A,-737280,0.0,-999.0,90,0.00,,,0.00,Wunderground v.1.15,2013-02-10 14:15:00,
2013-02-10 06:20:00,39.3,36.6,30.06,N/A,-737280,0.0,-999.0,90,0.00,,,0.00,Wunderground v.1.15,2013-02-10 14:20:00,
2013-02-10 06:25:00,39.1,36.4,30.06,N/A,-737280,0.0,-999.0,90,0.00,,,0.00,Wunderground v.1.15,2013-02-10 14:25:00,
2013-02-10 06:30:00,39.1,36.4,30.06,N/A,-737280,0.0,-999.0,90,0.00,,,0.00,Wunderground v.1.15,2013-02-10 14:30:00,
2013-02-10 06:35:00,39.1,36.4,30.07,N/A,-737280,0.0,-999.0,90,0.00,,,0.00,Wunderground v.1.15,2013-02-10 14:35:00,
2013-02-10 06:40:00,39.1,36.4,30.07,N/A,-737280,0.0,-999.0,90,0.00,,,0.00,Wunderground v.1.15,2013-02-10 14:40:00,
2013-02-10 06:45:00,38.9,36.2,30.07,N/A,-737280,0.0,-999.0,90,0.00,,,0.00,Wunderground v.1.15,2013-02-10 14:45:00,
2013-02-10 06:50:00,38.9,36.2,30.07,N/A,-737280,0.0,-999.0,90,0.00,,,0.00,Wunderground v.1.15,2013-02-10 14:50:00,
2013-02-10 06:55:00,38.9,36.2,30.07,N/A,-737280,0.0,-999.0,90,0.00,,,0.00,Wunderground v.1.15,2013-02-10 14:55:00,
2013-02-10 07:00:00,38.9,36.2,30.07,N/A,-737280,0.0,-999.0,90,0.00,,,0.00,Wunderground v.1.15,2013-02-10 15:00:00,
2013-02-10 07:05:00,39.1,36.4,30.07,N/A,-737280,0.0,-999.0,90,0.00,,,0.00,Wunderground v.1.15,2013-02-10 15:05:00,
2013-02-10 07:10:00,39.1,36.4,30.07,N/A,-737280,0.0,-999.0,90,0.00,,,0.00,Wunderground v.1.15,2013-02-10 15:10:00,
2013-02-10 07:15:00,39.3,36.6,30.07,N/A,-737280,0.0,-999.0,90,0.00,,,0.00,Wunderground v.1.15,2013-02-10 15:15:00,
2013-02-10 07:20:00,39.3,36.6,30.07,N/A,-737280,0.0,-999.0,90,0.00,,,0.00,Wunderground v.1.15,2013-02-10 15:20:00,
2013-02-10 07:25:00,39.6,36.9,30.08,N/A,-737280,0.0,-999.0,90,0.00,,,0.00,Wunderground v.1.15,2013-02-10 15:25:00,
2013-02-10 07:30:00,39.6,36.9,30.08,N/A,-737280,0.0,-999.0,90,0.00,,,0.00,Wunderground v.1.15,2013-02-10 15:30:00,
2013-02-10 07:35:00,40.3,37.6,30.08,N/A,-737280,0.0,-999.0,90,0.00,,,0.00,Wunderground v.1.15,2013-02-10 15:35:00,
2013-02-10 07:40:00,40.3,37.6,30.08,N/A,-737280,0.0,-999.0,90,0.00,,,0.00,Wunderground v.1.15,2013-02-10 15:40:00,
2013-02-10 07:45:00,41.4,38.7,30.08,N/A,-737280,0.0,-999.0,90,0.00,,,0.00,Wunderground v.1.15,2013-02-10 15:45:00,
2013-02-10 07:50:00,41.4,38.7,30.08,N/A,-737280,0.0,-999.0,90,0.00,,,0.00,Wunderground v.1.15,2013-02-10 15:50:00,
2013-02-10 07:55:00,42.7,40.0,30.08,SSW,203,0.0,-999.0,90,0.00,,,0.00,Wunderground v.1.15,2013-02-10 15:55:00,
2013-02-10 08:00:00,42.7,40.0,30.08,SSW,203,0.0,-999.0,90,0.00,,,0.00,Wunderground v.1.15,2013-02-10 16:00:00,
2013-02-10 08:05:00,43.4,40.7,30.08,N/A,-737280,0.0,-999.0,90,0.00,,,0.00,Wunderground v.1.15,2013-02-10 16:05:00,
2013-02-10 08:10:00,43.4,40.7,30.08,N/A,-737280,0.0,-999.0,90,0.00,,,0.00,Wunderground v.1.15,2013-02-10 16:10:00,
2013-02-10 08:15:00,44.2,41.5,30.08,SSW,203,0.0,-999.0,90,0.00,,,0.00,Wunderground v.1.15,2013-02-10 16:15:00,
2013-02-10 08:20:00,44.2,41.5,30.08,SSW,203,0.0,-999.0,90,0.00,,,0.00,Wunderground v.1.15,2013-02-10 16:20:00,
2013-02-10 08:25:00,44.9,42.1,30.08,N/A,-737280,0.0,-999.0,90,0.00,,,0.00,Wunderground v.1.15,2013-02-10 16:25:00,
2013-02-10 08:30:00,44.9,42.1,30.08,N/A,-737280,0.0,-999.0,90,0.00,,,0.00,Wunderground v.1.15,2013-02-10 16:30:00,
2013-02-10 08:35:00,45.5,42.7,30.08,SSW,206,0.0,0.0,90,0.00,,,0.00,Wunderground v.1.15,2013-02-10 16:35:00,
2013-02-10 08:40:00,45.9,42.8,30.09,SSW,206,0.0,0.0,89,0.00,,,0.00,Wunderground v.1.15,2013-02-10 16:40:00,
2013-02-10 08:45:00,46.6,43.2,30.09,SSW,203,0.0,-999.0,88,0.00,,,0.00,Wunderground v.1.15,2013-02-10 16:45:00,
2013-02-10 08:50:00,46.6,43.2,30.09,SSW,203,0.0,-999.0,88,0.00,,,0.00,Wunderground v.1.15,2013-02-10 16:50:00,
2013-02-10 08:55:00,47.5,43.8,30.09,N/A,-737280,0.0,-999.0,87,0.00,,,0.00,Wunderground v.1.15,2013-02-10 16:55:00,
2013-02-10 09:00:00,47.5,43.8,30.09,N/A,-737280,0.0,-999.0,87,0.00,,,0.00,Wunderground v.1.15,2013-02-10 17:00:00,
2013-02-10 09:05:00,48.2,43.9,30.09,SSW,203,0.0,-999.0,85,0.00,,,0.00,Wunderground v.1.15,2013-02-10 17:05:00,
2013-02-10 09:10:00,48.2,43.9,30.09,SSW,203,0.0,-999.0,85,0.00,,,0.00,Wunderground v.1.15,2013-02-10 17:10:00,
2013-02-10 09:15:00,49.1,44.2,30.09,SSW,203,0.0,-999.0,83,0.00,,,0.00,Wunderground v.1.15,2013-02-10 17:15:00,
2013-02-10 09:20:00,49.1,44.2,30.09,SSW,203,0.0,-999.0,83,0.00,,,0.00,Wunderground v.1.15,2013-02-10 17:20:00,
2013-02-10 09:25:00,49.7,43.8,30.09,SSW,203,1.0,-999.0,80,0.00,,,0.00,Wunderground v.1.15,2013-02-10 17:25:00,
2013-02-10 09:30:00,49.7,43.8,30.09,SSW,203,1.0,-999.0,80,0.00,,,0.00,Wunderground v.1.15,2013-02-10 17:30:00,
2013-02-10 09:35:00,50.3,44.0,30.09,ESE,113,0.0,-999.0,79,0.00,,,0.00,Wunderground v.1.15,2013-02-10 17:35:00,
2013-02-10 09:40:00,50.3,44.0,30.09,ESE,113,0.0,-999.0,79,0.00,,,0.00,Wunderground v.1.15,2013-02-10 17:40:00,
2013-02-10 09:45:00,50.9,44.3,30.10,ESE,113,0.0,-999.0,78,0.00,,,0.00,Wunderground v.1.15,2013-02-10 17:45:00,
2013-02-10 09:50:00,50.9,44.3,30.10,ESE,113,0.0,-999.0,78,0.00,,,0.00,Wunderground v.1.15,2013-02-10 17:50:00,
2013-02-10 09:55:00,51.4,44.4,30.10,ESE,113,1.0,-999.0,77,0.00,,,0.00,Wunderground v.1.15,2013-02-10 17:55:00,
2013-02-10 10:00:00,51.4,44.4,30.10,ESE,113,1.0,-999.0,77,0.00,,,0.00,Wunderground v.1.15,2013-02-10 18:00:00,
2013-02-10 10:05:00,51.9,44.9,30.09,ESE,113,1.0,-999.0,77,0.00,,,0.00,Wunderground v.1.15,2013-02-10 18:05:00,
2013-02-10 10:10:00,51.9,44.9,30.09,ESE,113,1.0,-999.0,77,0.00,,,0.00,Wunderground v.1.15,2013-02-10 18:10:00,
2013-02-10 10:15:00,52.3,45.3,30.09,ESE,113,1.0,-999.0,77,0.00,,,0.00,Wunderground v.1.15,2013-02-10 18:15:00,
2013-02-10 10:20:00,52.3,45.3,30.09,ESE,113,1.0,-999.0,77,0.00,,,0.00,Wunderground v.1.15,2013-02-10 18:20:00,
2013-02-10 10:30:00,52.7,45.7,30.09,East,101,2.0,2.0,77,0.00,,,0.00,Wunderground v.1.15,2013-02-10 18:30:00,
2013-02-10 10:34:00,52.6,45.6,30.09,ESE,113,2.0,-999.0,77,0.00,,,0.00,Wunderground v.1.15,2013-02-10 18:34:00,
2013-02-10 19:10:00,51.1,44.1,30.03,SSW,213,0.0,2.0,77,0.00,,,0.00,Wunderground v.1.15,2013-02-11 03:10:00,
2013-02-10 19:20:00,51.2,44.6,30.03,SSW,213,0.0,0.0,78,0.00,,,0.00,Wunderground v.1.15,2013-02-11 03:20:00,
2013-02-10 19:25:00,51.1,44.5,30.03,SSW,213,0.0,0.0,78,0.00,,,0.00,Wunderground v.1.15,2013-02-11 03:25:00,
2013-02-10 19:30:00,51.0,44.7,30.04,SSW,213,0.0,0.0,79,0.00,,,0.00,Wunderground v.1.15,2013-02-11 03:30:00,
2013-02-10 19:40:00,51.1,45.1,30.03,SSW,213,0.0,0.0,80,0.00,,,0.00,Wunderground v.1.15,2013-02-11 03:40:00,
2013-02-10 19:50:00,51.4,45.4,30.03,West,272,0.0,0.0,80,0.00,,,0.00,Wunderground v.1.15,2013-02-11 03:50:00,
2013-02-10 19:55:00,51.4,45.1,30.04,West,272,0.0,0.0,79,0.00,,,0.00,Wunderground v.1.15,2013-02-11 03:55:00,
2013-02-10 20:45:00,49.6,44.6,30.05,West,273,0.0,0.0,83,0.00,,,0.00,Wunderground v.1.15,2013-02-11 04:45:00,
2013-02-10 20:50:00,49.4,44.5,30.05,West,272,0.0,0.0,83,0.00,,,0.00,Wunderground v.1.15,2013-02-11 04:50:00,
2013-02-10 20:55:00,49.2,44.3,30.05,West,273,0.0,0.0,83,0.00,,,0.00,Wunderground v.1.15,2013-02-11 04:55:00,
2013-02-10 21:05:00,48.7,43.8,30.05,West,273,0.0,0.0,83,0.00,,,0.00,Wunderground v.1.15,2013-02-11 05:05:00,
2013-02-10 21:20:00,48.2,43.6,30.05,West,272,0.0,0.0,84,0.00,,,0.00,Wunderground v.1.15,2013-02-11 05:20:00,
2013-02-10 21:25:00,47.9,43.3,30.05,West,273,0.0,0.0,84,0.00,,,0.00,Wunderground v.1.15,2013-02-11 05:25:00,
2013-02-10 21:35:00,47.4,43.1,30.06,West,272,0.0,0.0,85,0.00,,,0.00,Wunderground v.1.15,2013-02-11 05:35:00,
2013-02-10 21:56:00,46.8,42.8,30.06,West,273,0.0,0.0,86,0.00,,,0.00,Wunderground v.1.15,2013-02-11 05:56:00,
2013-02-10 22:00:00,46.7,42.7,30.06,West,272,0.0,0.0,86,0.00,,,0.00,Wunderground v.1.15,2013-02-11 06:00:00,
2013-02-10 22:05:00,46.6,42.9,30.06,West,273,0.0,0.0,87,0.00,,,0.00,Wunderground v.1.15,2013-02-11 06:05:00,
2013-02-10 22:10:00,46.8,43.1,30.06,West,272,0.0,0.0,87,0.00,,,0.00,Wunderground v.1.15,2013-02-11 06:10:00,
2013-02-10 22:20:00,47.2,43.5,30.06,West,272,0.0,0.0,87,0.00,,,0.00,Wunderground v.1.15,2013-02-11 06:20:00,
2013-02-10 22:25:00,47.3,43.6,30.06,West,273,0.0,0.0,87,0.00,,,0.00,Wunderground v.1.15,2013-02-11 06:25:00,
2013-02-10 22:35:00,47.6,43.9,30.06,West,272,0.0,0.0,87,0.00,,,0.00,Wunderground v.1.15,2013-02-11 06:35:00,
2013-02-10 22:51:00,48.5,44.8,30.06,West,272,0.0,0.0,87,0.00,,,0.00,Wunderground v.1.15,2013-02-11 06:51:00,
2013-02-10 23:00:00,48.7,44.7,30.05,West,272,0.0,0.0,86,0.00,,,0.00,Wunderground v.1.15,2013-02-11 07:00:00,
2013-02-10 23:05:00,48.8,44.8,30.06,West,272,0.0,0.0,86,0.00,,,0.00,Wunderground v.1.15,2013-02-11 07:05:00,
2013-02-10 23:10:00,48.9,44.9,30.06,West,272,0.0,0.0,86,0.00,,,0.00,Wunderground v.1.15,2013-02-11 07:10:00,
2013-02-10 23:20:00,49.0,45.0,30.07,West,272,0.0,0.0,86,0.00,,,0.00,Wunderground v.1.15,2013-02-11 07:20:00,
2013-02-10 23:30:00,49.1,44.8,30.07,West,272,0.0,0.0,85,0.00,,,0.00,Wunderground v.1.15,2013-02-11 07:30:00,
2013-02-10 23:35:00,49.1,44.8,30.07,West,272,0.0,0.0,85,0.00,,,0.00,Wunderground v.1.15,2013-02-11 07:35:00,
2013-02-10 23:46:00,49.1,44.8,30.07,West,272,0.0,0.0,85,0.00,,,0.00,Wunderground v.1.15,2013-02-11 07:46:00,